Location: Newark
(58.8333°N, 23.5833°E)
Time: 18:16:40
(UTC+00:00)

METEOR M2 - Pass Details

Date: 17 December 2019
Orbit: 819 x 827 km, 98.5° (Epoch: 20 January)

Event Time Altitude Azimuth Distance (km) Brightness Sun altitude
Exits shadow 15:38:54 19° 46° (NE) 1,877 ? -14.5°
Maximum altitude 15:39:04 19° 43° (NE) 1,875 ? -14.6°
Drops below altitude 10° 15:42:42 10° 0° (N) 2,431 ? -15.0°
Sets 15:45:41 0° 343° (NNW) 3,367 ? -15.4°
